Location: *
(42.0175°N, 9.4056°E)
Time: 08:58:33
(UTC+00:00)

Meteor 1-14 Rocket - Pass Details

Date: 25 August 2019
Orbit: 833 x 920 km, 81.3° (Epoch: 15 September)

Event Time Altitude Azimuth Distance (km) Brightness Sun altitude
Rises 18:35:04 0° 184° (S) 3,544 7.3 -5.6°
Reaches altitude 10° 18:37:32 10° 184° (S) 2,603 6.6 -6.0°
Maximum altitude 18:43:30 81° 98° (E) 928 4.4 -7.1°
Drops below altitude 10° 18:49:25 10° 12° (NNE) 2,585 6.9 -8.1°
Sets 18:51:51 0° 11° (NNE) 3,518 7.6 -8.5°
